[[{"header":{"parameterUnit":"m.s-1","parameterCategory":1,"la1":30.2991,"la2":30.254,"lo1":-89.0895,"lo2":-89.0444,"dy":0.0017,"dx":0.0017,"nx":28,"ny":28,"refTime":"2024-03-15T21:00:00:Z","depth":0,"parameterNumber":2,"parameterNumberName":"U-component_of_WINDS"},"data":[0,0,0,0,0,0,0,0,0,0,0,0,0,0,0,0,0,0,0,0,0,0,0,0,0,0,0,0,0,0,0,0,0,0,0,0,0,0,0,0,0,0,0,0,0,0,0,0,0,0,0,0,0,0,0,0,0,0,-1.193,-1.193,0,-1.2019,-1.202,-1.2021,-1.2015,-1.2014,-1.2013,-1.2011,-1.2109,-1.2113,-1.2117,0,0,0,0,0,0,0,0,0,0,0,0,0,-1.1759,-1.1762,-1.1929,-1.1931,-1.1932,-1.2019,-1.202,-1.2022,-1.2016,-1.2014,-1.2012,-1.2011,-1.2108,-1.2113,-1.2117,0,0,0,0,0,0,0,0,0,0,0,0,0,-1.1839,-1.1763,-1.1929,-1.1939,-1.1941,-1.2019,-1.202,-1.2022,-1.2016,-1.2014,-1.2012,-1.201,-1.2107,-1.2112,-1.2118,-1.2194,0,0,-1.2136,-1.2138,0,0,0,0,0,0,0,0,-1.1835,-1.1846,-1.1936,-1.1938,-1.1941,-1.2004,-1.1996,-1.208,-1.2016,-1.1988,-1.2011,-1.2009,-1.2076,-1.2084,-1.2106,-1.2198,-1.2203,-1.2136,-1.214,-1.2142,-1.2144,0,0,0,0,0,0,0,-1.1829,-1.1842,-1.1965,-1.1938,-1.194,-1.1941,-1.195,-1.2012,-1.2042,-1.199,-1.199,-1.2,-1.2077,-1.21,-1.2108,-1.2204,-1.2136,-1.2141,-1.2145,-1.2147,-1.2365,-1.2367,0,0,0,0,0,0,-1.1821,-1.1837,-1.1962,-1.1968,-1.1881,-1.1946,-1.1956,-1.1986,-1.2042,-1.2048,-1.2002,-1.1999,-1.2091,-1.2101,-1.2112,-1.2205,-1.2142,-1.2147,-1.2151,-1.2363,-1.2366,-1.2368,0,0,0,0,0,0,-1.1817,-1.1832,-1.1959,-1.1902,-1.1919,-1.1951,-1.1984,-1.1989,-1.2012,-1.205,-1.2056,-1.2019,-1.209,-1.2103,-1.2173,-1.2209,-1.215,-1.2155,-1.236,-1.2364,-1.2367,-1.2393,0,0,0,0,0,0,-1.1812,-1.1831,-1.1858,-1.1903,-1.1922,-1.2017,-1.1986,-1.1992,-1.2021,-1.2019,-1.2069,-1.2075,-1.209,-1.2165,-1.2179,-1.2216,-1.216,-1.2357,-1.2362,-1.2366,-1.2389,-1.2397,-1.2403,0,0,0,0,0,-1.1806,-1.1863,-1.186,-1.1875,-1.1957,-1.2019,-1.203,-1.2044,-1.2024,-1.2053,-1.2078,-1.2073,-1.2202,-1.2172,-1.2188,-1.2227,-1.2355,-1.236,-1.2365,-1.2386,-1.2395,-1.2403,0,0,0,0,0,0,-1.1824,-1.1869,-1.1866,-1.1939,-1.1975,-1.2018,-1.2055,-1.2053,-1.2098,-1.2094,-1.2111,-1.2123,-1.2193,-1.2217,-1.2183,-1.2304,-1.2276,-1.2285,-1.2286,-1.2295,-1.2302,-1.2296,-1.2165,0,0,0,0,0,-1.1835,-1.188,-1.1919,-1.1979,-1.1997,-1.2023,-1.2051,-1.2058,-1.2097,-1.2113,-1.2143,-1.2183,-1.2233,-1.2265,-1.2313,-1.2392,-1.2404,-1.2427,-1.2434,-1.2439,-1.2447,-1.2492,-1.2504,-1.2385,-1.2385,-1.2385,0,0,-1.1862,-1.1892,-1.192,-1.1983,-1.2012,-1.2061,-1.2036,-1.2088,-1.2125,-1.2122,-1.219,-1.2213,-1.2259,-1.2334,-1.2369,-1.2356,-1.2482,-1.2446,-1.245,-1.2455,-1.2499,-1.251,-1.252,-1.2389,-1.2388,-1.2388,0,0,-1.1934,-1.196,-1.2014,-1.2043,-1.2087,-1.2104,-1.2116,-1.216,-1.2175,-1.2243,-1.2242,-1.2287,-1.2371,-1.2404,-1.2432,-1.2516,-1.2515,-1.2532,-1.257,-1.2614,-1.2623,-1.2631,-1.2663,-1.2674,-1.2539,-1.2539,-1.2539,0,-1.1961,-1.2032,-1.2043,-1.2095,-1.2124,-1.2121,-1.2177,-1.2206,-1.2264,-1.2285,-1.2269,-1.2375,-1.2406,-1.2489,-1.251,-1.2532,-1.2549,-1.2527,-1.262,-1.2629,-1.2637,-1.2668,-1.2679,-1.2541,-1.2541,-1.254,-1.254,0,-1.2064,-1.2113,-1.2152,-1.2206,-1.2239,-1.2293,-1.2314,-1.2347,-1.2351,-1.2371,-1.2441,-1.2477,-1.2532,-1.2552,-1.2558,-1.2637,-1.2628,-1.2616,-1.2589,-1.265,-1.2679,-1.2691,-1.2544,-1.2543,-1.2542,-1.2542,0,0,-1.2151,-1.2209,-1.2224,-1.2248,-1.2296,-1.2336,-1.239,-1.2442,-1.2471,-1.2511,-1.2559,-1.263,-1.2619,-1.2651,-1.266,-1.2698,-1.2765,-1.2682,-1.2684,-1.2698,-1.2857,-1.2867,-1.288,-1.2763,-1.2766,-1.2768,-1.2854,0,-1.2229,-1.2324,-1.2335,-1.242,-1.2467,-1.2465,-1.2513,-1.2549,-1.2568,-1.2612,-1.2634,-1.2685,-1.2666,-1.2686,-1.2723,-1.2749,-1.2798,-1.2743,-1.2811,-1.2813,-1.28,-1.2895,-1.2905,-1.2985,-1.2865,-1.2867,-1.2868,0,-1.2333,-1.2374,-1.2463,-1.2505,-1.2525,-1.2568,-1.2617,-1.2659,-1.27,-1.2711,-1.2746,-1.2751,-1.281,-1.2778,-1.2861,-1.2823,-1.2852,-1.2869,-1.2872,-1.288,-1.2845,-1.2907,-1.301,-1.3022,-1.2886,-1.2884,-1.2883,0,-1.2389,-1.2467,-1.2531,-1.2552,-1.2602,-1.2632,-1.2655,-1.2694,-1.2725,-1.2768,-1.2789,-1.284,-1.2868,-1.2908,-1.2927,-1.2902,-1.3009,-1.2979,-1.3022,-1.3022,-1.3046,-1.3044,-1.3156,-1.3061,-1.3061,-1.3061,-1.306,0,-1.2476,-1.2532,-1.2557,-1.2596,-1.2658,-1.2672,-1.2734,-1.2756,-1.279,-1.2836,-1.2837,-1.288,-1.2902,-1.2948,-1.2964,-1.303,-1.3043,-1.3056,-1.3059,-1.3056,-1.3055,-1.3076,-1.3072,-1.3064,-1.3063,-1.3063,-1.3062,0,-1.2551,-1.2569,-1.2639,-1.268,-1.2692,-1.2736,-1.2772,-1.2812,-1.283,-1.2887,-1.2902,-1.2932,-1.2987,-1.3009,-1.3077,-1.3087,-1.3165,-1.3163,-1.315,-1.3152,-1.3194,-1.3191,-1.3325,-1.3344,-1.3235,-1.3236,-1.3237,0,-1.2606,-1.2648,-1.2693,-1.2722,-1.2746,-1.2793,-1.2824,-1.284,-1.2872,-1.2922,-1.2956,-1.3011,-1.3055,-1.3144,-1.3173,-1.3225,-1.3226,-1.327,-1.3234,-1.323,-1.3229,-1.3227,-1.3232,-1.3277,-1.3278,-1.3279,-1.328,0,-1.2702,-1.2709,-1.2753,-1.28,-1.2837,-1.2875,-1.2913,-1.2938,-1.2959,-1.2996,-1.3051,-1.3086,-1.3154,-1.3209,-1.3263,-1.3289,-1.3289,-1.329,-1.3303,-1.3301,-1.3293,-1.33,-1.317,-1.3287,-1.3287,-1.3286,-1.3286,-1.3285,-1.2769,-1.2807,-1.2845,-1.2894,-1.2924,-1.2959,-1.2998,-1.3021,-1.3066,-1.3122,-1.3129,-1.3189,-1.323,-1.3302,-1.333,-1.3378,-1.3367,-1.3386,-1.3391,-1.3395,-1.3399,-1.3283,-1.3388,-1.3388,-1.3387,-1.3387,-1.3387,0,-1.2867,-1.2891,-1.2936,-1.2988,-1.3027,-1.3021,-1.3062,-1.3096,-1.3148,-1.3186,-1.3229,-1.3293,-1.3347,-1.3379,-1.3433,-1.3466,-1.3468,-1.348,-1.3479,-1.3485,-1.3405,-1.3389,-1.3478,-1.3478,-1.3478,-1.3478,-1.3478,-1.3478,-1.2923,-1.2987,-1.2998,-1.3078,-1.3102,-1.3159,-1.3183,-1.3217,-1.3247,-1.3318,-1.3361,-1.3381,-1.3418,-1.3475,-1.3524,-1.3532,-1.3553,-1.3567,-1.3575,-1.35,-1.349,-1.3481,-1.3467,-1.357,-1.3571,-1.3651,-1.3651,-1.3652]},{"header":{"parameterUnit":"m.s-1","parameterCategory":1,"la1":30.2991,"la2":30.254,"lo1":-89.0895,"lo2":-89.0444,"dy":0.0017,"dx":0.0017,"nx":28,"ny":28,"refTime":"2024-03-15T21:00:00:Z","depth":0,"parameterNumber":3,"parameterNumberName":"V-component_of_WINDS"},"data":[0,0,0,0,0,0,0,0,0,0,0,0,0,0,0,0,0,0,0,0,0,0,0,0,0,0,0,0,0,0,0,0,0,0,0,0,0,0,0,0,0,0,0,0,0,0,0,0,0,0,0,0,0,0,0,0,0,0,-3.0689,-3.069,0,-3.0804,-3.0805,-3.0806,-3.0805,-3.0803,-3.0802,-3.08,-3.0917,-3.0921,-3.0925,0,0,0,0,0,0,0,0,0,0,0,0,0,-3.0469,-3.0473,-3.0689,-3.069,-3.0692,-3.0803,-3.0805,-3.0807,-3.0805,-3.0803,-3.0801,-3.08,-3.0915,-3.092,-3.0926,0,0,0,0,0,0,0,0,0,0,0,0,0,-3.0572,-3.0474,-3.0688,-3.0704,-3.0707,-3.0803,-3.0805,-3.0807,-3.0805,-3.0803,-3.0801,-3.0799,-3.0913,-3.092,-3.0927,-3.1014,0,0,-3.0947,-3.095,0,0,0,0,0,0,0,0,-3.0566,-3.058,-3.0701,-3.0703,-3.0706,-3.0788,-3.077,-3.0876,-3.0806,-3.0768,-3.08,-3.0798,-3.0875,-3.0885,-3.0912,-3.102,-3.1025,-3.0948,-3.0952,-3.0955,-3.0957,0,0,0,0,0,0,0,-3.0559,-3.0575,-3.0734,-3.0702,-3.0706,-3.0706,-3.0718,-3.079,-3.0833,-3.0771,-3.0771,-3.0785,-3.0877,-3.0905,-3.0914,-3.1026,-3.0948,-3.0954,-3.0958,-3.0961,-3.1215,-3.1218,0,0,0,0,0,0,-3.0549,-3.0569,-3.073,-3.0738,-3.0629,-3.0712,-3.0725,-3.0764,-3.0832,-3.0841,-3.0787,-3.0784,-3.0895,-3.0906,-3.0918,-3.1028,-3.0955,-3.0961,-3.0965,-3.1212,-3.1216,-3.1219,0,0,0,0,0,0,-3.0544,-3.0563,-3.0726,-3.0654,-3.0674,-3.0718,-3.0761,-3.0767,-3.0796,-3.0844,-3.0852,-3.0808,-3.0893,-3.0909,-3.0991,-3.1032,-3.0964,-3.097,-3.1209,-3.1213,-3.1217,-3.1246,0,0,0,0,0,0,-3.0537,-3.0561,-3.0595,-3.0654,-3.0678,-3.0797,-3.0764,-3.0771,-3.0808,-3.0806,-3.0866,-3.0874,-3.0893,-3.0981,-3.0998,-3.104,-3.0976,-3.1206,-3.1211,-3.1216,-3.1242,-3.125,-3.1258,0,0,0,0,0,-3.053,-3.0597,-3.0596,-3.0616,-3.0721,-3.0799,-3.0813,-3.0833,-3.0811,-3.0845,-3.0877,-3.0872,-3.1024,-3.099,-3.1008,-3.1053,-3.1203,-3.121,-3.1215,-3.1238,-3.1249,-3.1258,0,0,0,0,0,0,-3.054,-3.0605,-3.0605,-3.0694,-3.0741,-3.0798,-3.0842,-3.0843,-3.0897,-3.0893,-3.0916,-3.093,-3.1013,-3.1041,-3.1001,-3.1143,-3.1111,-3.1121,-3.1122,-3.1132,-3.1141,-3.1133,-3.0981,0,0,0,0,0,-3.0553,-3.0611,-3.0665,-3.0738,-3.0762,-3.0798,-3.0833,-3.0845,-3.0894,-3.0914,-3.0951,-3.0999,-3.1059,-3.1097,-3.1153,-3.1245,-3.126,-3.1286,-3.1294,-3.13,-3.1309,-3.1363,-3.1375,-3.1239,-3.1238,-3.1238,0,0,-3.058,-3.0622,-3.0657,-3.0741,-3.0779,-3.084,-3.0815,-3.0879,-3.0924,-3.0924,-3.1005,-3.1034,-3.1089,-3.1177,-3.1218,-3.1203,-3.135,-3.1308,-3.1313,-3.1318,-3.137,-3.1383,-3.1395,-3.1243,-3.1242,-3.1241,0,0,-3.066,-3.0697,-3.0764,-3.0803,-3.0861,-3.0885,-3.0901,-3.0959,-3.0979,-3.1061,-3.1063,-3.1117,-3.1217,-3.1257,-3.1291,-3.1389,-3.1387,-3.1406,-3.145,-3.1502,-3.1513,-3.1522,-3.156,-3.1572,-3.1415,-3.1415,-3.1415,0,-3.0686,-3.0777,-3.0798,-3.0863,-3.0901,-3.0904,-3.0973,-3.1009,-3.1083,-3.1109,-3.1092,-3.122,-3.1257,-3.1356,-3.138,-3.1407,-3.1427,-3.14,-3.1509,-3.1519,-3.1529,-3.1565,-3.1578,-3.1417,-3.1417,-3.1417,-3.1416,0,-3.0807,-3.087,-3.0917,-3.099,-3.1032,-3.1099,-3.113,-3.1171,-3.118,-3.1206,-3.129,-3.1335,-3.1403,-3.1427,-3.1435,-3.1528,-3.1517,-3.1504,-3.1473,-3.1544,-3.1578,-3.1591,-3.142,-3.1419,-3.1419,-3.1418,0,0,-3.0896,-3.0981,-3.0998,-3.1033,-3.1098,-3.1148,-3.1215,-3.1282,-3.1317,-3.1368,-3.1426,-3.1512,-3.1502,-3.154,-3.1553,-3.1598,-3.1676,-3.158,-3.1582,-3.1598,-3.1784,-3.1795,-3.181,-3.1675,-3.1678,-3.168,-3.178,0,-3.0984,-3.1105,-3.1127,-3.1232,-3.1292,-3.1297,-3.1356,-3.1403,-3.143,-3.1485,-3.1514,-3.1576,-3.1556,-3.1579,-3.1624,-3.1657,-3.1714,-3.165,-3.173,-3.1733,-3.1718,-3.1827,-3.1839,-3.1931,-3.1793,-3.1795,-3.1797,0,-3.1104,-3.116,-3.1271,-3.1332,-3.1358,-3.141,-3.1475,-3.1527,-3.1581,-3.1597,-3.1641,-3.165,-3.1721,-3.1686,-3.1785,-3.1741,-3.1775,-3.1797,-3.1801,-3.181,-3.177,-3.1842,-3.1961,-3.1975,-3.1818,-3.1816,-3.1815,0,-3.116,-3.1264,-3.1345,-3.1373,-3.1445,-3.1483,-3.1514,-3.1566,-3.1606,-3.1662,-3.1688,-3.1751,-3.1786,-3.1835,-3.1861,-3.1832,-3.1959,-3.1925,-3.1976,-3.1975,-3.2003,-3.2001,-3.2131,-3.2022,-3.2022,-3.2022,-3.2021,0,-3.1258,-3.1327,-3.1372,-3.1421,-3.1499,-3.1524,-3.16,-3.1631,-3.1678,-3.1734,-3.1742,-3.1795,-3.1825,-3.1882,-3.1903,-3.1983,-3.1998,-3.2014,-3.2019,-3.2015,-3.2013,-3.2039,-3.2034,-3.2025,-3.2025,-3.2024,-3.2023,0,-3.1335,-3.1367,-3.1456,-3.1518,-3.1535,-3.159,-3.1643,-3.1692,-3.1719,-3.1791,-3.1809,-3.1852,-3.192,-3.1951,-3.2034,-3.2048,-3.2141,-3.214,-3.2123,-3.2125,-3.2175,-3.2171,-3.2327,-3.235,-3.2224,-3.2225,-3.2226,0,-3.1396,-3.1449,-3.1517,-3.1556,-3.1589,-3.1652,-3.1693,-3.172,-3.1763,-3.183,-3.1871,-3.194,-3.1997,-3.2106,-3.2145,-3.2209,-3.2212,-3.2262,-3.2221,-3.2216,-3.2215,-3.2213,-3.2219,-3.227,-3.2271,-3.2272,-3.2273,0,-3.1501,-3.1515,-3.1575,-3.1641,-3.1691,-3.1743,-3.1795,-3.1827,-3.1862,-3.191,-3.1981,-3.2025,-3.2112,-3.2181,-3.2249,-3.2281,-3.2284,-3.2285,-3.2301,-3.2298,-3.2287,-3.2296,-3.2145,-3.2282,-3.2281,-3.228,-3.228,-3.2279,-3.1573,-3.1622,-3.1679,-3.1746,-3.1788,-3.1837,-3.1887,-3.1922,-3.1981,-3.2055,-3.2067,-3.2144,-3.2198,-3.229,-3.2325,-3.2385,-3.2373,-3.2395,-3.2401,-3.2407,-3.2411,-3.2276,-3.2397,-3.2397,-3.2397,-3.2397,-3.2397,0,-3.1681,-3.1718,-3.178,-3.1853,-3.1906,-3.1905,-3.1963,-3.2007,-3.2075,-3.2126,-3.2183,-3.2265,-3.2333,-3.2377,-3.2446,-3.2486,-3.2489,-3.2503,-3.2501,-3.2509,-3.2417,-3.2397,-3.25,-3.25,-3.25,-3.25,-3.25,-3.25,-3.1744,-3.1827,-3.1849,-3.1954,-3.199,-3.2066,-3.21,-3.2146,-3.2187,-3.228,-3.2337,-3.2366,-3.2415,-3.2488,-3.255,-3.2561,-3.2587,-3.2602,-3.2613,-3.2526,-3.2515,-3.2505,-3.2488,-3.2607,-3.2607,-3.2702,-3.2702,-3.2703]}]]